Regional Weather Roundup
Issued by NWS

Home | Current Version | Previous Version | Graphics & Text | Print | Product List | Glossary On
Versions: 1 2 3 4 5 6 7 8 9 10 11 12 13 14 15 16 17 18 19 20 21 22 23 24 25 26 27 28 29 30 31 32 33 34 35 36 37 38 39 40 41 42 43 44 45 46 47 48 49 50
827
ASUS45 KTFX 262110
RWRMT
MONTANA REGIONAL WEATHER ROUNDUP
NATIONAL WEATHER SERVICE GREAT FALLS MT
300 PM MDT TUE JUL 26 2016

NOTE: "FAIR" INDICATES FEW OR NO CLOUDS BELOW 12000 FEET WITH NO
SIGNIFICANT WEATHER AND/OR OBSTRUCTIONS TO VISIBILITY.

MTZ001>007-043-262200-
WEST OF THE DIVIDE

CITY           SKY/WX    TMP DP  RH WIND       PRES   REMARKS
KALISPELL      MOSUNNY   84  52  33 N20       30.05F
MISSOULA       MOSUNNY   91  44  19 NW10      30.02F
BUTTE          LGT RAIN  71  47  42 SE12G24   30.19R
MULLAN PASS    MOSUNNY   74  48  39 VRB6      30.25F
ANACONDA         N/A     79  41  25 CALM      30.15R
DEER LODGE       N/A     81  41  24 SE3       30.15R
EUREKA           N/A     72  55  56 NE3       30.11F
HAMILTON         N/A     84  45  24 CALM      30.04F
LIBBY            N/A     81  50  34 NW8       30.07F
PLAINS           N/A     85  52  32 W8        30.04S
RONAN            N/A     79  53  40 N10       30.10S
$$

MTZ008-052>055-262200-
SOUTHWEST MONTANA

CITY           SKY/WX    TMP DP  RH WIND       PRES   REMARKS
BOZEMAN        SUNNY     87  39  18 N5        30.08F
DILLON         CLOUDY    70  45  40 NW30G40   30.16R
W YELLOWSTONE  SUNNY     79  27  14 N8G21     30.24S
ENNIS          MOSUNNY   82  36  18 SW26G36   30.17S
TWIN BRIDGES     N/A     85  42  22 SW7       30.11R
$$

MTZ009-010-012-014-046-048-049-054-262200-
EAST SLOPES AND CENTRAL MONTANA

CITY           SKY/WX    TMP DP  RH WIND       PRES   REMARKS
CUT BANK         N/A     77  52  41 NW26G37   30.10R
GREAT FALLS    SUNNY     89  45  21 VRB5      30.03F
MALMSTROM AFB  SUNNY     87  45  23 SE2       30.03F
HELENA         CLOUDY    89  46  22 CALM      30.03F
CHOTEAU          N/A     81  50  34 CALM      30.08F
$$

MTZ011-013-016-021-045-047-050-051-262200-
NORTH CENTRAL MONTANA

CITY           SKY/WX    TMP DP  RH WIND       PRES   REMARKS
HAVRE          SUNNY     87  59  38 NE13      30.00F
LEWISTOWN      CLOUDY    84  50  30 N3        30.09F
N BAR RANCH      N/A     84  46  26 E10       30.13S
CHINOOK          N/A     84  61  45 E8G16     30.01F
$$

MTZ017>020-022>027-061-062-262200-
NORTHEAST MONTANA

CITY           SKY/WX    TMP DP  RH WIND       PRES   REMARKS
GLASGOW        SUNNY     83  60  45 E14G24    30.05S
JORDAN           N/A     87  52  29 E13       30.04F
SIDNEY         CLOUDY    79  64  60 NE13      30.07S
WOLF POINT     MOSUNNY   81  61  50 E15       30.07F
PLENTYWOOD       N/A     72  55  56 E7        30.10F
POPLAR           N/A     75  61  60 NE15      30.07F
SCOBEY           N/A     74  51  44 NE9       30.10
$$

MTZ028>42-056>058-262200-
SOUTHCENTRAL AND SOUTHEAST MONTANA

CITY           SKY/WX    TMP DP  RH WIND       PRES   REMARKS
BAKER          SUNNY     82  57  42 NE10      30.08S
BILLINGS       MOSUNNY   90  42  18 E10       30.04F
LIVINGSTON     SUNNY     91  33  12 VRB5      30.07F
MILES CITY     SUNNY     88  51  28 E8        30.03F
FORSYTH          N/A     88  52  29 E8        30.01F
LAUREL           N/A     90  45  21 E6        30.03F
ROUNDUP          N/A     88  47  24 N5        29.96F
$$

REGIONAL REPORTS...DAKOTAS

CITY           SKY/WX    TMP DP  RH WIND       PRES   REMARKS
WILLISTON      CLOUDY    81  59  47 N14       30.08R
MINOT          PTSUNNY   82  63  52 N17       30.02F
DICKINSON      MOSUNNY   76  61  59 NE13      30.06R
BEACH            N/A     81  59  47 NE12      30.11R
CROSBY           N/A     72  66  83 CALM      30.11S
WATFORD CITY     N/A    N/A N/A N/A MISG        N/A
BISMARCK       MOSUNNY   83  66  56 NE16      29.99R
GRAND FORKS    CLOUDY    87  65  47 N8        29.95R
FARGO          CLOUDY    84  71  65 E6        29.94S
BUFFALO SD       N/A     86  55  34 NE10      29.98F
RAPID CITY     CLOUDY    90  57  32 NE10      30.03S
$$

REGIONAL REPORTS...WYOMING/IDAHO/WASHINGTON

CITY           SKY/WX    TMP DP  RH WIND       PRES   REMARKS
GILLETTE       CLOUDY    89  44  20 N10G18    30.08F
SHERIDAN       MOSUNNY   87  44  22 N6        30.06F
BUFFALO WY     SUNNY     89  43  20 N10G21    30.13F
CODY           SUNNY     84  46  26 NE12      30.13F
YELLOWSTONE LA   N/A     76  32  20 CALM      30.34F
IDAHO FALLS    SUNNY     93  28  10 N6        30.07F
SALMON         CLOUDY    86  45  23 E13       30.04F
BOISE          SUNNY     95  44  17 NW12      29.97F HX  91
SPOKANE        MOSUNNY   86  50  28 E14G21    30.04F
$$

REGIONAL REPORTS...ALBERTA

CITY           SKY/WX    TMP DP  RH WIND       PRES   REMARKS
EDMONTON       MOSUNNY   75  57  53 S3        30.04F
CALGARY        PTSUNNY   75  55  50 NE8       30.10F
LETHBRIDGE     CLOUDY    72  61  68 W10G21    30.09R THUNDER
MEDICINE HAT   PTSUNNY   82  57  42 VRB2      30.02F
WATERTON GATE    N/A     59  54  82 SW7         N/A
CARDSTON         N/A     61  55  82 NW6         N/A
MILK RIVER       N/A     72  61  68 SE7         N/A
ONEFOUR          N/A     86  50  28 SE7         N/A
$$

REGIONAL REPORTS...SASKATCHEWAN

CITY           SKY/WX    TMP DP  RH WIND       PRES   REMARKS
SWIFT CURRENT  PTSUNNY   72  59  64 VRB16G37  30.11F
REGINA         PTSUNNY   75  50  41 N6        30.11S
SASKATOON      CLOUDY    77  45  31 SE7       30.14S
CYPRESS HILLS    N/A     73  55  53 SE8         N/A
VAL MARIE        N/A     73  59  60 E12         N/A
ROCKGLEN         N/A     66  55  68 S2          N/A
ASSINIBOIA       N/A     77  59  53 S9          N/A
$$




USA.gov is the U.S. government's official web portal to all federal, state and local government web resources and services.